This demonstration page uses our WeatherBlox Daily Observations layout. Learn more.

Left ArrowRight Arrow

Hourly Observations for February 27, 2015

Temp ( °F °C ) Dew Point ( °F °C ) Humidity (%) Winds ( mph kmh ) Pressure ( in mb ) Visibility ( mi km ) Precip ( " mm )
12:07 am 00:07 Mostly Cloudy 2 -16.7 -2 -18.9 83 83 N N/A 30.45 1031 10 16.0934 N/A
12:53 am 00:53 Cloudy 6 -14.4 2 -16.7 83 83 N N/A 30.42 1030 10 16.0934 N/A
1:53 am 01:53 Cloudy with Light Snow 8 -13.3 5 -15 87 87 N N/A 30.43 1031 7 11.26538 N/A
2:53 am 02:53 Cloudy 8 -13.3 4 -15.6 83 83 N N/A 30.45 1031 10 16.0934 N/A
3:03 am 03:03 Cloudy 8 -13.3 5 -15 87 87 N N/A 30.48 1032 10 16.0934 N/A
3:53 am 03:53 Cloudy with Light Snow 11 -11.7 7 -13.9 84 84 W 5 7 30.47 1032 5 8.0467 N/A
4:53 am 04:53 Cloudy with Mist and Fog 10 -12.2 6 -14.4 84 84 WSW 3 6 30.5 1033 6 9.65604 N/A
5:53 am 05:53 Cloudy 8 -13.3 4 -15.6 83 83 N N/A 30.53 1034 7 11.26538 N/A
6:53 am 06:53 Mostly Clear 7 -13.9 -1 -18.3 70 70 WNW 3 6 30.55 1035 10 16.0934 N/A
7:53 am 07:53 Sunny 2 -16.7 -2 -18.9 83 83 N N/A 30.58 1036 10 16.0934 N/A
8:53 am 08:53 Sunny 8 -13.3 -1 -18.3 66 66 WNW 3 6 30.61 1037 10 16.0934 N/A
9:53 am 09:53 Sunny 12 -11.1 1 -17.2 61 61 N 3 6 30.63 1037 10 16.0934 N/A
10:53 am 10:53 Sunny 15 -9.4 1 -17.2 53 53 VRB 3 6 30.65 1038 10 16.0934 N/A
11:53 am 11:53 Sunny 18 -7.8 2 -16.7 49 49 NW 3 6 30.67 1039 10 16.0934 N/A
12:53 pm 12:53 Sunny 19 -7.2 N/A 43 43 NW 12 19 30.66 1038 10 16.0934 N/A
1:53 pm 13:53 Sunny 20 -6.7 1 -17.2 43 43 WNW 6 9 30.65 1038 10 16.0934 N/A
2:53 pm 14:53 Sunny 21 -6.1 2 -16.7 43 43 W 6 9 30.64 1038 10 16.0934 N/A
3:53 pm 15:53 Sunny 19 -7.2 2 -16.7 47 47 NW 8 13 30.65 1038 10 16.0934 N/A
4:53 pm 16:53 Sunny 21 -6.1 1 -17.2 41 41 NNE 8 13 30.65 1038 10 16.0934 N/A
5:53 pm 17:53 Sunny 20 -6.7 N/A 41 41 N 5 7 30.66 1038 10 16.0934 N/A
6:53 pm 18:53 Clear 16 -8.9 N/A 49 49 N 5 7 30.67 1039 10 16.0934 N/A
7:53 pm 19:53 Clear 9 -12.8 -1 -18.3 64 64 N 6 9 30.69 1039 10 16.0934 N/A
8:53 pm 20:53 Clear 8 -13.3 1 -17.2 73 73 N N/A 30.72 1040 10 16.0934 N/A
9:53 pm 21:53 Clear 10 -12.2 1 -17.2 67 67 N N/A 30.73 1041 10 16.0934 N/A
10:53 pm 22:53 Clear 9 -12.8 2 -16.7 73 73 N N/A 30.73 1041 10 16.0934 N/A
11:53 pm 23:53 Clear 6 -14.4 1 -17.2 79 79 N N/A 30.73 1041 10 16.0934 N/A

Powered by AerisWeather